EHI
31 26 15 7 12 29 47 49 37 20 7 1 0 0 0 0 0 0 0 5 21 44 65 80 91 95 95 89 74 52 32 20 12 5 1 0 0 0 0 0 0 0 0
56 52 37 24 27 43 59 60 46 28 12 3 1 0 1 1 1 1 1 4 19 44 68 83 91 94 94 90 76 55 36 21 11 5 1 0 0 0 0 0 0 0 0
81 80 71 56 52 59 66 63 51 36 22 11 5 2 2 3 3 2 2 4 12 33 62 82 90 92 92 87 76 61 46 29 15 6 1 0 0 0 0 0 0 0 0
68 77 83 76 68 65 62 56 48 39 29 19 10 3 1 1 1 1 2 3 7 18 41 66 81 87 87 80 69 61 52 39 23 10 3 0 0 0 0 0 0 0 0
32 49 67 73 73 67 58 50 43 36 28 19 9 3 0 0 0 0 0 2 4 9 20 39 59 71 74 67 58 50 44 37 27 17 8 4 2 0 0 0 0 0 0
9 23 42 59 69 68 59 50 40 30 21 13 5 1 0 0 0 0 0 0 1 3 6 16 31 43 49 48 42 36 30 25 25 23 18 11 5 1 0 0 0 0 0
4 10 23 42 59 65 60 52 43 30 18 9 3 1 0 0 0 0 0 0 0 0 1 5 10 18 25 27 25 24 22 18 19 23 25 18 8 1 0 0 0 0 0
4 7 15 29 46 56 54 48 44 34 20 10 4 2 0 0 0 0 0 0 0 0 0 1 2 6 9 12 11 13 16 14 13 17 21 17 6 0 0 0 0 0 0
4 6 12 22 35 42 39 35 34 29 19 10 5 3 1 0 0 0 0 0 0 0 0 0 0 1 3 4 4 4 6 7 7 8 10 8 3 0 0 0 0 0 0
2 3 8 15 22 24 22 19 18 15 11 7 4 3 1 0 0 0 0 0 0 0 0 0 0 0 0 1 1 0 0 1 2 2 2 1 0 0 0 0 0 0 0
0 0 2 6 9 9 8 7 6 4 4 3 2 1 1 0 0 0 0 0 0 0 0 0 0 0 0 0 0 0 0 0 0 0 0 0 0 0 0 0 0 0 0
0 0 0 1 1 2 2 1 1 0 1 1 1 0 0 0 0 0 0 0 0 0 0 0 0 0 0 0 0 0 0 0 0 0 0 0 0 0 0 0 0 0 0
0 0 0 0 0 0 0 0 0 0 0 0 0 0 0 0 0 0 0 0 0 0 0 0 0 0 0 0 0 0 0 0 0 0 0 0 0 0 0 0 0 0 0
0 0 0 0 0 0 0 0 0 0 0 0 0 0 0 0 0 0 0 0 0 0 0 0 0 0 0 0 0 0 0 0 0 0 0 0 0 0 0 0 0 0 0
0 0 0 0 0 0 0 0 0 0 0 0 0 0 0 0 0 0 0 0 0 0 0 0 0 0 0 0 0 0 0 0 0 0 0 0 0 0 0 0 0 0 0
0 0 0 0 0 0 0 0 0 0 0 0 0 0 0 0 0 0 0 0 0 0 0 0 0 0 0 0 0 0 0 0 0 0 0 0 0 0 0 0 0 0 0
0 0 0 0 0 0 0 0 0 0 0 0 0 0 0 0 0 0 0 0 0 0 0 0 0 0 0 0 0 0 0 0 0 0 0 0 0 0 0 0 0 0 0
0 0 0 0 0 0 0 0 0 0 0 0 0 0 0 0 0 0 0 0 0 0 0 0 0 0 0 0 0 0 0 0 0 0 0 0 0 0 0 0 0 0 0
0 0 0 0 0 0 0 0 0 0 0 0 0 0 0 0 0 0 0 0 0 0 0 0 0 0 0 0 0 0 0 0 0 0 0 0 0 0 0 0 0 0 0
0 0 0 0 0 0 0 0 0 0 0 0 0 0 0 0 0 0 0 0 0 0 0 0 0 0 0 0 0 0 0 0 0 0 0 0 0 0 0 0 0 0 0
0 0 0 0 0 0 0 0 0 0 0 0 0 0 0 0 0 0 0 0 0 0 0 0 0 0 0 0 0 0 0 0 0 0 0 0 0 0 0 0 0 0 0
0 0 0 0 0 0 0 0 0 0 0 0 0 0 0 0 0 0 0 0 0 0 0 0 0 0 0 0 0 0 0 0 0 0 0 0 0 0 0 0 0 0 0
0 0 0 0 0 0 0 0 0 0 0 0 0 0 0 0 0 0 0 0 0 0 0 0 0 0 0 0 0 0 0 0 0 0 0 0 0 0 0 0 0 0 0
0 0 0 0 0 0 0 0 0 0 0 0 0 0 0 0 0 0 0 0 0 0 0 0 0 0 0 0 0 0 0 0 0 0 0 0 0 0 0 0 0 0 0
0 0 0 0 0 0 0 0 0 0 0 0 0 0 0 0 0 0 0 0 0 0 0 0 0 0 0 0 0 0 0 0 0 0 0 0 0 0 0 0 0 0 0
0 0 0 0 0 0 0 0 0 0 0 0 0 0 0 0 0 0 0 0 0 0 0 0 0 0 0 0 0 0 0 0 0 0 0 0 0 0 0 0 0 0 0
Wind_Speed
8 8 7 7 7 7 8 8 8 9 9 10 10 11 11 11 10 9 7 15 18 17 18 19 20 21 20 19 19 19 18 18 17 16 17 18 18 18 19 19 19 18 17
9 9 9 7 7 8 8 9 10 10 9 9 10 11 11 10 10 10 9 10 16 17 18 20 21 21 21 20 20 19 19 18 17 17 17 18 18 18 18 19 19 18 17
10 9 8 7 7 8 9 7 9 8 8 8 10 11 9 8 8 9 8 7 8 15 19 20 20 21 21 21 21 21 20 18 17 17 17 18 18 18 18 18 18 17 17
10 8 7 7 7 6 6 6 6 5 6 6 6 6 6 5 7 7 7 7 7 8 13 20 21 21 22 22 22 22 21 20 19 19 18 18 18 18 18 18 18 17 17
7 7 7 7 7 5 6 6 5 4 5 5 5 4 5 5 6 7 7 8 8 8 8 12 20 22 23 24 23 22 22 21 20 20 20 19 19 18 18 18 18 17 17
7 6 6 8 7 6 6 5 5 5 4 4 5 5 5 6 6 7 8 8 8 9 9 10 10 13 22 23 22 22 22 21 20 20 21 21 20 19 18 17 17 17 18
7 6 6 7 7 7 8 8 6 6 6 4 3 4 5 7 9 9 7 7 8 10 9 10 8 7 8 17 20 21 22 23 21 21 21 21 21 19 18 18 17 17 18
7 7 7 6 7 7 8 8 7 5 5 5 5 3 4 4 6 9 7 7 7 6 7 9 8 8 7 6 9 18 22 23 23 22 21 20 20 19 19 19 18 18 18
7 7 8 7 7 6 7 8 8 8 7 5 6 6 4 6 4 3 5 4 3 1 3 4 5 4 5 5 5 10 17 19 22 23 21 20 20 19 19 20 20 19 19
8 7 7 7 7 6 7 8 8 6 7 6 5 6 6 4 4 3 3 2 2 2 2 3 2 1 0 1 3 6 9 11 15 18 19 19 19 19 20 20 21 21 20
7 8 7 7 7 6 7 8 7 7 6 6 5 4 5 5 6 5 4 3 2 2 2 3 1 1 2 3 2 2 2 5 7 9 12 14 16 18 20 21 22 21 21
7 8 8 7 7 7 8 8 7 7 6 6 5 5 4 4 4 5 5 3 2 2 1 1 1 2 2 2 3 3 2 1 2 4 6 8 10 12 15 17 19 20 21
7 8 8 7 7 7 7 7 6 6 5 5 5 4 4 3 2 3 3 2 1 1 2 2 2 2 2 2 1 2 1 1 1 1 3 3 3 3 5 7 9 12 15
8 9 9 8 8 7 6 5 4 4 4 4 4 4 2 2 2 2 2 2 1 1 3 3 2 3 2 1 2 2 1 2 2 1 1 1 1 1 1 2 3 5 6
7 9 9 8 7 5 5 5 4 4 4 4 3 3 2 2 1 1 1 2 3 2 2 2 2 3 2 2 3 2 2 3 2 2 1 1 1 1 1 1 2 3 5
7 8 9 8 6 4 3 3 3 4 4 3 3 3 2 1 1 1 1 2 2 3 3 1 2 2 3 4 6 4 4 6 6 4 2 2 1 1 1 2 3 5 6
7 8 8 8 6 4 2 1 2 4 4 3 3 4 3 2 2 1 1 2 2 3 5 3 3 4 6 5 5 5 5 5 5 8 6 4 3 2 2 3 5 6 7
6 7 7 7 6 4 2 2 3 4 5 5 4 4 4 4 4 3 3 4 4 5 6 6 4 5 6 4 5 5 5 5 5 8 8 7 5 3 3 4 5 7 8
5 6 6 7 7 6 5 6 7 7 7 7 6 6 5 7 6 5 6 7 7 8 7 6 4 4 4 3 4 4 5 4 5 7 8 7 6 5 4 4 5 6 8
4 5 5 7 7 8 9 9 10 10 10 9 7 6 6 7 7 7 8 9 9 9 7 6 4 4 3 3 4 4 4 4 4 5 5 5 6 6 6 7 7 8 8
2 3 4 6 7 7 8 9 9 10 9 9 8 8 8 10 11 9 8 7 8 7 6 6 4 4 4 4 4 3 3 3 3 3 3 3 3 3 3 5 8 11 11
0 1 3 4 6 5 8 10 9 8 8 8 8 7 8 9 11 14 14 12 9 8 6 5 3 4 3 3 3 3 3 3 4 4 3 3 2 2 3 3 8 11 12
2 2 2 4 5 4 9 11 11 8 7 7 7 6 7 7 8 7 10 12 12 11 8 5 4 3 2 2 3 4 3 2 1 4 3 3 3 3 3 3 9 11 12
4 3 3 3 4 5 10 12 12 9 8 7 6 7 7 7 6 7 8 8 7 6 6 4 4 2 2 1 1 1 0 2 3 3 3 3 4 3 3 3 7 10 12
4 4 4 5 5 5 9 12 11 7 7 6 5 6 7 7 10 11 9 8 7 6 7 9 7 6 6 7 5 4 5 4 3 4 3 3 4 4 3 3 5 10 11
5 6 5 5 6 5 8 12 11 6 6 5 4 5 8 9 10 11 8 8 8 5 5 7 8 8 7 8 9 5 3 3 2 3 4 4 4 4 5 4 3 5 6
Wind_Direction
226 230 232 230 228 222 220 221 225 231 234 238 240 241 242 242 240 236 239 243 238 234 230 225 222 223 225 226 226 227 228 229 229 226 225 225 225 225 222 221 219 216 213
225 228 232 229 226 219 217 216 219 224 230 233 238 239 241 241 238 236 237 243 238 230 225 223 223 224 227 228 228 229 229 230 229 227 226 226 226 225 224 222 220 216 213
231 231 234 235 229 219 215 216 221 224 229 230 236 237 238 237 236 236 238 235 236 232 227 226 226 228 229 230 230 229 229 229 228 226 225 225 224 224 223 222 220 217 213
237 237 239 243 239 223 214 211 211 213 223 224 229 238 242 244 249 250 247 241 234 234 231 230 231 232 233 233 233 232 229 227 226 225 224 223 223 222 220 220 219 216 214
254 238 237 238 234 228 224 219 211 205 221 227 232 242 250 252 255 261 259 253 242 236 233 231 231 232 235 238 237 235 233 229 226 224 223 223 223 221 219 219 218 216 214
257 244 235 232 224 222 226 221 216 209 213 217 237 246 244 247 249 249 253 257 253 248 242 237 232 236 236 239 237 237 237 235 230 225 222 222 222 220 219 218 217 216 214
264 253 247 238 226 224 226 220 215 219 226 205 214 259 259 245 246 249 248 253 257 258 251 240 232 231 236 235 233 232 235 238 234 228 222 220 220 218 216 217 216 215 214
275 271 254 247 237 231 231 224 213 213 223 196 192 220 275 287 252 243 238 239 251 263 264 255 237 229 233 233 230 230 233 236 235 230 224 219 217 215 214 215 215 214 213
286 278 268 257 248 234 233 231 221 216 228 222 201 195 208 236 270 271 236 225 240 287 298 291 261 240 232 225 228 233 237 237 237 234 229 221 216 213 212 214 215 214 214
286 283 276 266 253 239 236 237 231 222 222 232 222 215 216 206 219 267 281 247 247 257 307 298 288 294 176 177 202 221 234 238 241 241 239 231 221 214 213 214 217 216 214
288 284 278 269 257 244 237 235 230 221 217 224 221 215 224 227 220 224 252 264 283 277 277 277 285 95 92 104 112 125 203 234 242 250 255 249 235 222 215 217 221 222 219
298 291 285 272 260 249 238 232 225 218 217 219 219 211 205 206 208 213 223 229 248 264 289 356 96 116 115 110 105 112 122 214 261 257 260 258 248 233 223 222 226 228 227
308 301 294 280 267 252 241 226 214 210 205 206 209 207 203 206 196 194 192 201 214 311 18 28 33 82 98 88 72 93 60 15 321 272 255 256 249 232 225 225 230 236 237
307 303 299 287 275 260 241 214 199 194 187 191 192 182 180 187 187 189 183 165 127 50 43 26 14 32 49 62 44 53 19 5 15 21 17 48 82 126 183 229 243 249 254
315 318 313 304 293 272 237 201 189 180 170 174 174 171 169 163 173 173 173 158 138 125 78 18 28 8 20 53 34 31 17 8 9 16 22 38 52 60 65 270 267 268 268
322 326 328 324 317 304 256 196 172 166 161 169 169 161 138 116 135 176 177 166 158 143 120 70 41 16 23 37 33 31 25 22 22 22 16 29 45 35 345 304 287 277 272
322 328 329 330 329 326 333 155 151 149 152 141 128 122 110 101 100 100 115 116 124 120 111 69 34 26 38 33 19 26 37 39 32 32 31 32 33 18 340 314 299 290 283
323 330 335 342 347 354 17 71 106 116 123 117 107 102 104 102 89 84 87 84 84 87 100 89 40 27 32 27 29 33 30 39 38 37 39 40 36 20 350 323 306 295 288
335 344 358 5 9 22 45 65 79 82 89 91 92 96 95 94 85 78 80 83 84 86 86 90 58 25 20 17 22 28 34 27 34 39 41 37 34 31 18 355 331 316 301
347 357 10 18 25 42 57 66 75 78 77 75 77 79 79 83 83 81 82 87 95 91 83 80 63 30 13 349 24 18 17 15 20 21 24 23 23 26 19 10 356 341 325
349 1 22 38 39 52 70 78 81 86 84 79 70 65 66 71 73 77 87 89 93 92 84 78 64 42 21 14 4 352 17 355 355 4 355 356 359 358 354 355 355 346 335
274 41 50 56 55 69 91 94 99 94 89 83 75 64 60 57 68 71 75 77 88 97 94 85 71 61 29 9 1 13 19 26 360 337 350 324 336 335 329 339 344 345 340
185 141 99 84 77 90 107 105 103 99 90 83 77 71 71 62 66 70 66 62 61 71 92 109 94 79 58 8 27 25 21 43 358 318 352 322 322 313 306 321 339 343 339
174 161 140 119 101 104 115 110 103 94 88 82 82 87 83 63 66 82 73 59 48 43 56 79 114 126 125 109 90 92 344 22 337 333 24 351 320 309 303 313 327 336 339
166 158 153 142 116 103 118 120 110 99 91 79 75 78 88 79 75 81 78 70 52 26 44 69 83 87 72 64 64 50 35 42 6 325 355 8 318 316 316 315 321 332 334
164 154 154 152 133 120 122 126 119 115 105 95 75 66 77 88 81 80 83 81 70 41 49 56 49 41 40 41 46 60 75 74 40 339 328 357 333 344 335 320 324 331 334